Regional Weather Roundup
Issued by NWS

Home | Current Version | Previous Version | Graphics & Text | Print | Product List | Glossary On
Versions: 1 2 3 4 5 6 7 8 9 10 11 12 13 14 15 16 17 18 19 20 21 22 23 24 25 26 27 28 29 30 31 32 33 34 35 36 37 38 39 40 41 42 43 44 45 46 47 48 49 50
000
ASUS45 KTFX 250710
RWRMT
MONTANA REGIONAL WEATHER ROUNDUP
NATIONAL WEATHER SERVICE GREAT FALLS MT
1200 AM MST SUN FEB 25 2018

NOTE: "FAIR" INDICATES FEW OR NO CLOUDS BELOW 12000 FEET WITH NO
SIGNIFICANT WEATHER AND/OR OBSTRUCTIONS TO VISIBILITY.

MTZ001>007-043-250800-
WEST OF THE DIVIDE

CITY           SKY/WX    TMP DP  RH WIND       PRES   REMARKS
KALISPELL      CLOUDY    24  22  91 S9        29.83S WCI  14
MISSOULA       CLOUDY    21  18  88 CALM      29.89R
BUTTE          CLOUDY     9   5  84 CALM      29.78S
MULLAN PASS    CLOUDY    15  13  91 W9        29.75F WCI   3
ANACONDA         N/A     21  10  63 W7        29.80S WCI  13
DEER LODGE       N/A     19  19 100 CALM      29.82S
HAMILTON         N/A     28  12  50 MISG      29.90R
PLAINS           N/A     23  16  75 S2        29.91F
RONAN            N/A     18  16  93 SE5       29.89R
$$

MTZ008-052>055-250800-
SOUTHWEST MONTANA

CITY           SKY/WX    TMP DP  RH WIND       PRES   REMARKS
BOZEMAN        CLOUDY    22  11  62 SW6       29.80F WCI  14
DILLON         FAIR       9   7  92 SW15      29.83R WCI  -8
ENNIS          MOCLDY    18   7  62 SE10      29.84R WCI   6
W YELLOWSTONE  CLOUDY    14  10  85 SW13      29.76R WCI   0
THREE FORKS      N/A     18  10  70 CALM      29.81R
TWIN BRIDGES     N/A     19   6  57 CALM      29.83R
$$

MTZ009-010-012-014-046-048-049-054-250800-
EAST SLOPES AND CENTRAL MONTANA

CITY           SKY/WX    TMP DP  RH WIND       PRES   REMARKS
CUT BANK       FAIR      19   9  65 W30       29.60F WCI   0
GREAT FALLS    FAIR      17   6  62 SW17      29.68F WCI   1
MALMSTROM AFB  FAIR      11   6  81 SW15      29.70F WCI  -5
HELENA         FAIR      25  14  63 W15       29.77F WCI  13
AUGUSTA        FLURRIES  20  13  73 W37G44    29.64F WCI   0
BOWMANS CRNR   FAIR      17   7  65 S9        29.67F WCI   6
CHOTEAU          N/A     23   9  54 W13       29.66F WCI  11
CONRAD           N/A      4  -4  69 S2        29.69
FAIRFIELD      FAIR      20   6  53 SW17      29.66F WCI   6
POWER          FAIR      10   2  70 W5        29.67F
RAYNESFORD     FAIR      24   9  51 SW23      29.68F WCI   9
ULM            FAIR      19   9  63 SW17      29.70F WCI   4
WHITE SULPHUR    N/A     19   9  63 NW13G26   29.70R WCI   7
$$

MTZ011-013-016-021-045-047-050-051-250800-
NORTH CENTRAL MONTANA

CITY           SKY/WX    TMP DP  RH WIND       PRES   REMARKS
HAVRE          FAIR       7   2  80 SW13      29.69F WCI  -9
LEWISTOWN      FAIR       7   2  80 W6        29.70R WCI  -3
N BAR RANCH    FAIR      18   5  57 W15       29.68S WCI   3
CHINOOK          N/A      9   3  78 W6        29.69F WCI  -1
GEYSER         FAIR      14   6  70 SW15      29.68F WCI  -1
STANFORD       FAIR      20   9  63 W23       29.67S WCI   3
WINIFRED       FAIR      15   7  68 W10       29.68S WCI   3
$$

MTZ017>020-022>027-061-062-250800-
NORTHEAST MONTANA

CITY           SKY/WX    TMP DP  RH WIND       PRES   REMARKS
GLASGOW        FAIR      13   9  84 W9        29.66S WCI   1
GLENDIVE       FAIR      17  14  88 W13       29.67R WCI   4
JORDAN           N/A      6   1  80 W10       29.70R WCI  -9
MALTA          CLEAR      7   5  92 W14       29.67F WCI -10
SIDNEY         FAIR      24  19  81 W23G31    29.62S WCI   9
WOLF POINT     CLOUDY    21  16  81 W12       29.67R WCI   9
PLENTYWOOD       N/A     18  12  79 W14       29.58S WCI   4
POPLAR           N/A     21  18  86 W12       29.66S WCI   9
SCOBEY           N/A     17   7  65 W5        29.61S
$$

MTZ028>42-056>058-250800-
SOUTHCENTRAL AND SOUTHEAST MONTANA

CITY           SKY/WX    TMP DP  RH WIND       PRES   REMARKS
BAKER          CLOUDY    17  12  80 W17       29.67R WCI   1
BILLINGS       FAIR      24  17  74 SW12      29.73R WCI  13
LIVINGSTON     CLOUDY    24  16  71 W17       29.75R WCI  11
MILES CITY     FAIR       9   4  80 W6        29.73R WCI  -1
BIG TIMBER     CLOUDY    23  18  80 W23G29    29.76  WCI   7
EKALAKA          N/A     13   3  64 SW10      29.68R WCI   0
FORSYTH          N/A     18   9  68 S3        29.73F
HARLOWTON      FAIR      18  10  71 W24       29.69F WCI   0
LAUREL           N/A     19  10  68 SW14      29.75S WCI   6
$$

REGIONAL REPORTS...DAKOTAS

CITY           SKY/WX    TMP DP  RH WIND       PRES   REMARKS
WILLISTON      MOCLDY    23  17  78 W14       29.60R WCI  11
MINOT          CLOUDY    22  17  81 W14       29.51F WCI   9
DICKINSON      CLOUDY    18  14  84 W17       29.58R WCI   3
BEACH          LGT SNOW  18  16  93 W16       29.66R WCI   3
CROSBY         FAIR      18  14  86 W14       29.56S WCI   4
TIOGA          FAIR      18  18 100 W18       29.56R WCI   2
BISMARCK       FAIR      14   9  80 W12       29.58S WCI   0
GRAND FORKS    CLOUDY    14  12  92 W6        29.53F WCI   5
FARGO          CLOUDY    13  12  96 W12       29.54S WCI  -1
BUFFALO SD       N/A     14   5  67 W12       29.59R WCI   0
RAPID CITY     FAIR      12   2  64 S6        29.70S WCI   3
$$

REGIONAL REPORTS...WYOMING/IDAHO/WASHINGTON

CITY           SKY/WX    TMP DP  RH WIND       PRES   REMARKS
GILLETTE       FAIR      17   3  54 SW20      29.70F WCI   1
SHERIDAN       MOCLDY    26   6  42 W8        29.72R WCI  18
BUFFALO WY     FAIR      21  -2  36 CALM      29.69R
CODY           FAIR      24   6  46 W17G28    29.73R WCI  11
YELLOWSTONE LA   N/A     -1  -4  87 CALM      29.74S
IDAHO FALLS    FAIR      17  15  92 SW8       29.93R WCI   7
SALMON         FAIR      18  15  88 CALM      29.94R
BOISE          FAIR      23  19  85 W3        30.13R
SPOKANE        MOCLDY    26  22  84 S15       29.92F WCI  14
$$

REGIONAL REPORTS...ALBERTA

CITY           SKY/WX    TMP DP  RH WIND       PRES   REMARKS
CALGARY        PTCLDY    23   0  36 W13G22    29.47F WCI  11
CARDSTON         N/A     25   7  46 W15G23      N/A  WCI  12
EDMONTON       CLEAR     18  10  73 SW5       29.42F
FORT MCMURRAY  MOCLDY     7   3  85 SE8       29.47F WCI  -6
HIGH LEVEL     CLEAR      3   1  92 CALM      29.34F
LETHBRIDGE     CLEAR     23  10  58 W26       29.57F WCI   6
LLOYDMINSTER   PTCLDY     9   5  85 SW8       29.50F WCI  -4
MEDICINE HAT   CLEAR     10   3  72 SW8       29.60F WCI  -1
MILK RIVER       N/A     18   9  68 W16         N/A  WCI   3
PEACE RIVER    FLURRIES  12   9  85 CALM      29.30F
PINCHER CREEK  MOCLDY    23  10  58 W30G38    29.56F WCI   5
WATERTON GATE    N/A     23   7  50 SW29G43     N/A  WCI   6
$$

REGIONAL REPORTS...SASKATCHEWAN

CITY           SKY/WX    TMP DP  RH WIND       PRES   REMARKS
CORONACH         N/A     12   7  79 NW10        N/A  WCI  -1
CYPRESS HILLS    N/A     14   3  62 W6          N/A  WCI   5
ESTEVAN        MOCLDY    16  12  86 W13       29.53R WCI   2
MOOSE JAW        N/A     19  14  79 W12         N/A  WCI   7
PRINCE ALBERT  FLURRIES  16   7  67 NW8       29.57S WCI   5
REGINA         MOCLDY    12   9  85 W13       29.54S WCI  -3
ROCKGLEN         N/A     14   9  79 W13         N/A  WCI   0
SASKATOON      FLURRIES  21  16  79 NE5       29.57S
VAL MARIE        N/A      3  -2  78 NE1         N/A
$$



USA.gov is the U.S. government's official web portal to all federal, state and local government web resources and services.